DELTA 1 DEB, 10198

Orbit data source: Space-Track

DELTA 1 DEB, 10198 is space debris in LEO originally from a launch on Thu, 14 Jul 1977 UTC launched from the Air Force Eastern Test Range (AFETR). Debris objects in space refer to the collection of defunct objects orbiting the Earth. Examples of debris include non-operational satellites, rocket bodies, and fragments generated from explosions, collisions, or faulty payload assembly.

Loading next visibility...
Identifier
10198, 1977-065AB
Orbit
LEO
Last TLE update
1 day ago
Origin
Manufacturer
Unknown
Mission
Spacecraft
Bus & Motor
Unknown
Mass
Unknown
Launch date (UTC)
1977-07-14 (48 years ago)
Launch vehicle
Unknown
Launch site
Air Force Eastern Test Range (AFETR)
Object type
Payload
Rocket body
Debris
Shape & HBR
Unknown
Radar Cross Section
Small (<0.1 m²)

Expand to show TLE details & history

TLE from 1 day ago
0 DELTA 1 DEB
1 10198U 77065AB  25128.03407422  .00000455  00000-0  30010-3 0  9995
2 10198  29.5695 354.2449 0604601 281.4374  71.8916 13.29041366275678
Epoch: 2025-05-08T00:49Z
Definitive object data (Epoch: 2025-05-08T00:49:04.012Z)
Latitude
0.00001°
Longitude
115.86783°
Altitude
1,032.955 km
Speed
7.394 km/s
True Right ascension
23h 36m 58s
True Declination
0° 00' 00"
Sunlit
Object was in daylight at TLE epoch
Visualization TLE readout
Latitude
9.37886°
Longitude
-87.03166°
Altitude
1,426.246 km
Speed
7.018 km/s
Apparent Right ascension
07h 34m 57s
Apparent Declination
-20° 33' 00"
Sunlit
Object is in daylight
Visualization observer readout
Local Sidereal Time
14:40:36
Azimuth
263.681° W
Elevation
-25.351°
Doppler factor
1
Orbital elements
Apogee altitude
1,609.522 km
Perigee altitude
698.72 km
Semi-major axis
7,532.258 km
Eccentricity
0.0604601
Inclination
29.5695°
RAAN
354.2449°
Arg. of periapsis
281.4374°
True anomaly
78.61937°
Mean anomaly
71.8916°
Eccentric anomaly
75.24142°
Mean motion
3.32013 °/min
BSTAR
0.0003001
Orbital period
108.43 mins
Loading maneuver chart data...
Loading SW <> Apogee altitude chart data...
Loading historical data...
Loading historical data...
Loading historical data...
Loading historical data...
Loading historical data...
Loading historical data...
Loading historical data...

DELTA 1 DEB Visibility forecast

Observer location: undefined°, undefined°

Span
Click to sort rows by Start time (UTC) header in descending order
Start Az.
Max El. time (UTC)
Max El. Az.
Max El.
End time (UTC)
End Az.
6 mins2025-05-09 16:39:45.503Z164.794° S2025-05-09 16:42:45.503Z141.722° SSE12.657°2025-05-09 16:45:45.503Z121.012° SE
13 mins2025-05-09 18:31:45.503Z208.404° SW2025-05-09 18:36:45.503Z160.87° S27.962°2025-05-09 18:44:45.503Z102.967° ESE
15 mins2025-05-09 20:25:45.503Z238.016° WSW2025-05-09 20:31:45.503Z183.355° SSW35.017°2025-05-09 20:40:45.503Z110.721° ESE
16 mins2025-05-09 22:20:45.503Z251.573° W2025-05-09 22:27:45.503Z194.711° SSW32.542°2025-05-09 22:36:45.503Z129.253° SE
12 mins2025-05-10 00:17:45.503Z245.937° WSW2025-05-10 00:22:45.503Z211.797° SW21.108°2025-05-10 00:29:45.503Z163.606° S
|